Regional Weather Roundup
Issued by NWS

Home | Current Version | Previous Version | Text Only | Print | Product List | Glossary Off
Versions: 1 2 3 4 5 6 7 8 9 10 11 12 13 14 15 16 17 18 19 20 21 22 23 24 25 26 27 28 29 30 31 32 33 34 35 36 37 38 39 40 41 42 43 44 45 46 47 48 49 50

000
ASUS43 KMKX 230821
RWRWI

WISCONSIN REGIONAL WEATHER ROUNDUP
NATIONAL WEATHER SERVICE MILWAUKEE/SULLIVAN WI
300 AM CDT WED MAY 23 2018

NOTE: "FAIR" INDICATES FEW OR NO CLOUDS BELOW 12,000 FEET WITH NO
SIGNIFICANT WEATHER AND/OR OBSTRUCTIONS TO VISIBILITY.

WIZ001-002-006>008-014>016-023>028-230900-
NORTHWEST WISCONSIN

CITY           SKY/WX    TMP DP  RH WIND       PRES   REMARKS
SUPERIOR ARPT  FAIR      53  53  97 S3        30.07R
ASHLAND        FAIR      55  53  93 SW7       30.07F
HAYWARD        FAIR      48  46  93 CALM      30.10S
SIREN          FAIR      51  49  93 CALM      30.09S
CUMBERLAND     FOG       50  50 100 CALM      30.10S VSB 1/4
RICE LAKE        N/A     51  51  98 CALM      30.12S FOG
CHETEK         MOCLDY    50  50 100 CALM      30.10S FOG
LADYSMITH      FAIR      51  50  96 CALM      30.12S FOG
EAU CLAIRE     FOG       50  50 100 CALM      30.10R VSB 1/4
MENOMONIE      FOG       54  54  99 CALM      30.10S VSB 3/4
NEW RICHMOND   FAIR      56  55  95 E3        30.10R FOG
OSCEOLA        FAIR      54  52  94 CALM      30.11S
$$

WIZ003>005-009-010-017-018-230900-
NORTH CENTRAL WISCONSIN

CITY           SKY/WX    TMP DP  RH WIND       PRES   REMARKS
MANITOWISH WTR FOG       45  45 100 CALM      30.11S VSB 1/2
ARBOR VITAE    FAIR      52  50  93 CALM      30.11S FOG
WOODRUFF       FAIR      52  50  93 CALM      30.11S FOG
RHINELANDER    FAIR      54  53  97 CALM      30.12R FOG
EAGLE RIVER    FAIR      46  45  99 CALM      30.10S FOG
LAND O LAKES   FAIR      43  42  97 CALM      30.12S
PHILLIPS       FAIR      50  50 100 CALM      30.11S
TOMAHAWK       FAIR      47  47  97 CALM      30.12S FOG
MEDFORD        FOG       49  49  99 CALM      30.11R VSB 1/4
MERRILL        FOG       49  49 100 CALM      30.12R VSB 1/2
$$

WIZ029-030-035-036-043>047-230900-
CENTRAL WISCONSIN

CITY           SKY/WX    TMP DP  RH WIND       PRES   REMARKS
WAUSAU         FAIR      56  56 100 NW3       30.10R
MOSINEE        FOG       52  52 100 SW3       30.13R VSB<1/4
MARSHFIELD     FOG       51  51 100 CALM      30.10S VSB 3/4
STEVENS POINT  FAIR      51  51 100 CALM      30.13R
WAUPACA        FAIR      57  56  97 CALM      30.11F
WAUTOMA        FOG       52  52 100 CALM      30.12S VSB 3/4
WISC RAPIDS    FAIR      51  50  96 CALM      30.12S FOG
CAMP DOUGLAS   FOG       48  48 100 CALM      30.11S VSB 3/8
$$

WIZ011>013-019>022-031-037>040-048>050-230900-
NORTHEAST WISCONSIN

CITY           SKY/WX    TMP DP  RH WIND       PRES   REMARKS
ANTIGO         FAIR      49  49 100 CALM      30.12R FOG
SHAWANO        FAIR      60  57  88 CALM      30.09S
OCONTO         FAIR      57  55  93 W5        30.07R
STURGEON BAY   FAIR      58  55  90 SW7       30.07S
GREEN BAY      FAIR      60  57  89 W6        30.08S
MANITOWOC      FAIR      60  57  89 W9        30.10R
APPLETON       FAIR      55  55 100 W8        30.09S
CLINTONVILLE   FAIR      58  55  90 CALM      30.09S
OSHKOSH        FAIR      57  56  96 W5        30.10S
$$

WIZ032>034-041-042-053>061-230900-
SOUTHWEST WISCONSIN

CITY           SKY/WX    TMP DP  RH WIND       PRES   REMARKS
LA CROSSE      FAIR      56  55  97 SE5       30.10S
SPARTA         FOG       47  47 100 CALM      30.12S VSB 1/2
VIROQUA        FAIR      57  57 100 SE3       30.11F
BOSCOBEL       FOG       55  54  96 CALM      30.11S VSB 1/4
PRAIRIE DU CHI FAIR      56  55  95 CALM      30.11S FOG
PLATTEVILLE    FAIR      57  57 100 E3        30.12S
$$

WIZ056-057-062-063-064-067-068-230900-
SOUTH CENTRAL WISCONSIN

CITY           SKY/WX    TMP DP  RH WIND       PRES   REMARKS
REEDSBURG      FOG       51  51 100 CALM      30.11S VSB 1/2
BARABOO/DELLS  FOG       52  51  95 CALM      30.12R VSB 1/4
LONE ROCK      FOG       54  54 100 W6        30.12R VSB 1/4
MINERAL POINT  FOG       55  55 100 CALM      30.12R VSB 3/4
MADISON          N/A     50  50 100 CALM      30.11S FOG
MIDDLETON      MOCLDY    53  53 100 CALM      30.12S
WATERTOWN      CLOUDY    51  51 100 CALM      30.11S FOG
MONROE         FAIR      57  55  94 CALM      30.11S
JANESVILLE     FOG       54  54 100 CALM      30.11S VSB 1/4
$$

WIZ051-052-058>065-066-070>072-230900-
SOUTHEAST WISCONSIN

CITY           SKY/WX    TMP DP  RH WIND       PRES   REMARKS
MILWAUKEE      FAIR      50  49  96 CALM      30.11R
WAUKESHA       FAIR      50  50 100 NW3       30.13R
MILWAUKEE/TIMM FAIR      52  50  93 CALM      30.12R
RACINE         FAIR      54  53  97 W5        30.12R FOG
BURLINGTON       N/A     50  50  98 CALM      30.12R
KENOSHA        FOG       51  50  96 CALM      30.11R VSB 1/2
FOND DU LAC    FAIR      52  51  97 SW3       30.12R FOG
SHEBOYGAN      FAIR      58  56  93 NW5       30.10R
WEST BEND      FAIR      50  50 100 CALM      30.11S FOG
JUNEAU         FOG       53  53  99 CALM      30.13R VSB<1/4
$$

LSZ147-162-230900-
LAKE SUPERIOR

STATION/POSITION TIME  TEMP    WIND        PRES    WAVE
                       AIR SEA DIR/SP/G            HT/PER
                 (UTC) (F)     (DEG/KT/KT) (MB)    (FT/S)
W MID LAKE BUOY  0750   43 36  250/  6/  6 1018.0R   0
DEVILS ISLAND    0800   61     250/ 18/ 19 1017.8F
SAXON HARBOR     0730   56     200/  4/  6 1017.6F
$$

LMZ867-665-643>646-230900-
LAKE MICHIGAN

STATION/POSITION TIME  TEMP    WIND        PRES    WAVE
                       AIR SEA DIR/SP/G            HT/PER
                 (UTC) (F)     (DEG/KT/KT) (MB)    (FT/S)
N MID LAKE BUOY  0800   39 37  110/  4/  4 1018.4
NORTHPORT PIER   0800   51      10/  3/ 12 1018.3
KEWAUNEE LAKESHO 0754   61     280/  4/  8 1017.9R
SHEBOYGAN LAKESH 0800   61     280/ 11/ 12 1019.1R
PORT WASHINGTON  0740   60     300/  7/  9 1020.0S
ATWATER BUOY     0737   54 47  290/  2/  4 1019.7R   0
MILWAUKEE LAKESH 0800   59     240/  2/  4   N/A
S MID LAKE BUOY  0750   42 39  220/  6/  8 1020.3S   0
KENOSHA   LAKESH 0800   52                 1019.6
$$

TC  - TEMPERATURE IN CELSIUS
VSB - VISIBILITY IN STATUTE MILES
WCI - WIND CHILL INDEX
HX  - HEAT INDEX





USA.gov is the U.S. government's official web portal to all federal, state and local government web resources and services.